User: anonymous   Login
Location: Drayton Valley
(53.2170°N, 114.9830°W)
Time: 01:01:29
(UTC-06:00)
Language:

Cosmos 1302 Rocket - Orbit

View from above orbital plane
View from above orbital plane
View from above satellite
View from above satellite

Ground track
Ground track

The orbit data is extracted from the following two-line orbital elements,

1 12792U 81084B   14297.81831758  .00000332  00000-0  12023-3 0  6486
2 12792 074.0320 014.0441 0013226 179.3776 301.2400 14.37158589736217
Epoch (UTC): 24 October 2014 19:38:22
Eccentricity: 0.0013226
inclination: 74.0320°
perigee height: 758 km
apogee height: 777 km
right ascension of ascending node: 14.0441°
argument of perigee: 179.3776°
revolutions per day: 14.37158589
mean anomaly at epoch: 301.2400°
orbit number at epoch: 73621

The dashed part of the orbit path shows where the satellite is in the earth's shadow,  

DLR